Location: Black Forest
(43.4794°N, 75.0081°W)
Time: 04:48:10
(UTC-05:00)

ISS - All Passes

Search period start: 12 February 2016 00:00
Search period end: 22 February 2016 00:00
Orbit: 398 x 408 km, 51.6° (Epoch: 11 February)

Date Brightness Start Highest point End Pass type
(mag) Time Alt. Az. Time Alt. Az. Time Alt. Az.
12 Feb - 13:43:50 10° SSE 13:45:27 13° SE 13:47:04 10° ESE daylight
12 Feb - 15:18:13 10° WSW 15:21:28 82° NNW 15:24:44 10° ENE daylight
12 Feb - 16:55:36 10° WNW 16:58:17 23° NNW 17:00:58 10° NE daylight
12 Feb - 18:33:01 10° NW 18:35:30 20° N 18:38:01 10° ENE visible
12 Feb - 20:09:19 10° NW 20:12:29 50° NNE 20:15:39 10° ESE visible
12 Feb - 21:46:08 10° W 21:48:44 23° SW 21:51:22 10° S night (unlit)
13 Feb - 14:25:35 10° SW 14:28:46 54° SE 14:31:57 10° ENE daylight
13 Feb - 16:02:27 10° W 16:05:21 29° NNW 16:08:16 10° NE daylight
13 Feb - 17:40:07 10° NW 17:42:31 19° N 17:44:56 10° NE daylight
13 Feb - 19:16:39 10° NW 19:19:38 33° NNE 19:22:37 10° E visible
13 Feb - 20:53:03 10° WNW 20:56:09 42° SW 20:59:13 10° SSE visible
14 Feb - 13:33:15 10° SSW 13:36:07 29° SE 13:38:58 10° ENE daylight
14 Feb - 15:09:21 10° W 15:12:28 42° NNW 15:15:35 10° NE daylight
14 Feb - 16:47:02 10° NW 16:49:30 19° N 16:51:57 10° NE daylight
14 Feb - 18:23:56 10° NW 18:26:42 25° NNE 18:29:28 10° ENE visible
14 Feb - 20:00:11 10° WNW 20:03:25 80° SW 20:06:40 10° SE visible
14 Feb - 21:38:59 10° WSW 21:39:21 10° SW 21:39:43 10° SW night (unlit)
15 Feb - 12:41:26 10° S 12:43:30 16° SE 12:45:34 10° E daylight
15 Feb - 14:16:21 10° WSW 14:19:36 69° NNW 14:22:51 10° NE daylight
15 Feb - 15:53:51 10° WNW 15:56:27 22° NNW 15:59:05 10° NE daylight
15 Feb - 17:31:08 10° NW 17:33:41 21° N 17:36:14 10° ENE daylight
15 Feb - 19:07:24 10° NW 19:10:36 58° NNE 19:13:48 10° ESE visible
15 Feb - 20:44:24 10° W 20:46:47 19° SW 20:49:10 10° S visible
16 Feb - 13:23:33 10° SW 13:26:46 66° SE 13:30:01 10° ENE daylight
16 Feb - 15:00:35 10° WNW 15:03:26 27° NNW 15:06:17 10° NE daylight
16 Feb - 16:38:11 10° NW 16:40:37 19° N 16:43:02 10° NE daylight
16 Feb - 18:14:37 10° NW 18:17:41 37° NNE 18:20:44 10° E visible
16 Feb - 19:51:07 10° WNW 19:54:07 35° SW 19:57:05 10° SSE visible
17 Feb - 12:31:00 10° SSW 12:34:00 34° SE 12:37:00 10° ENE daylight
17 Feb - 14:07:20 10° W 14:10:25 37° NNW 14:13:29 10° NE daylight
17 Feb - 15:45:03 10° NW 15:47:29 19° N 15:49:55 10° NE daylight
17 Feb - 17:21:49 10° NW 17:24:40 27° NNE 17:27:29 10° ENE daylight
17 Feb - 18:58:06 10° WNW 19:01:20 67° SW 19:04:32 10° SE visible
18 Feb - 11:38:54 10° S 11:41:17 19° SE 11:43:39 10° E daylight
18 Feb - 13:14:13 10° WSW 13:17:27 59° NNW 13:20:40 10° NE daylight
18 Feb - 14:51:46 10° WNW 14:54:21 21° N 14:56:55 10° NE daylight
18 Feb - 16:28:58 10° NW 16:31:34 22° N 16:34:10 10° ENE daylight
18 Feb - 18:05:12 10° NW 18:08:26 68° NNE 18:11:40 10° ESE visible
18 Feb - 19:42:26 10° W 19:44:32 16° SW 19:46:36 10° S visible
19 Feb - 12:21:15 10° SW 12:24:30 79° SE 12:27:46 10° ENE daylight
19 Feb - 13:58:26 10° WNW 14:01:13 25° NNW 14:04:00 10° NE daylight
19 Feb - 15:35:56 10° NW 15:38:24 19° N 15:40:51 10° NE daylight
19 Feb - 17:12:20 10° NW 17:15:26 41° NNE 17:18:32 10° E daylight
19 Feb - 18:48:55 10° WNW 18:51:47 29° SW 18:54:38 10° SSE visible
20 Feb - 11:28:31 10° SSW 11:31:37 41° SE 11:34:42 10° ENE daylight
20 Feb - 13:05:05 10° W 13:08:05 34° NNW 13:11:06 10° NE daylight
20 Feb - 14:42:46 10° NW 14:45:11 19° N 14:47:37 10° NE daylight
20 Feb - 16:19:27 10° NW 16:22:20 29° NNE 16:25:14 10° E daylight
20 Feb - 17:55:44 10° WNW 17:58:56 56° SW 18:02:06 10° SE daylight
21 Feb - 10:36:10 10° S 10:38:46 22° SE 10:41:23 10° E daylight
21 Feb - 12:11:48 10° WSW 12:15:00 51° NNW 12:18:12 10° NE daylight
21 Feb - 13:49:25 10° WNW 13:51:57 20° N 13:54:29 10° NE daylight
21 Feb - 15:26:30 10° NW 15:29:10 23° NNE 15:31:50 10° ENE daylight
21 Feb - 17:02:43 10° NW 17:05:58 79° NNE 17:09:12 10° ESE daylight
21 Feb - 18:40:17 10° W 18:41:59 14° SW 18:43:41 10° SSW visible
